Погода в Кестеле

Турция     36°31′06″N   32°03′56″E
темп.,
°C
ветер,
м/с
пор.,
м/с
влажн.,
%
обл.,
%
осадки,
мм/ч
давл.,
гПа
погр.,
м
27 января, ср
ср2700:00+16юв5759100 0.0 1016792
03:00+15вюв485194 0.0 1014683
06:00+16вюв61048100 0.1 1012902
09:00+15всв81155100 0.2 1010585
12:00+18юв71445100 0.0 10071412
15:00+18ююв121950100 0.1 10042158
18:00+14ююз101387100 12.8 10041126
21:00+13зюз91163100 15.9 10061800
28 января, чт
чт2800:00+12юз81067100 3.3 10071376
03:00+12зюз11136371 5.7 10081691
06:00+12зюз12146112 1.8 10091771
09:00+12зюз11135810 3.4 10121912
12:00+12зюз885535 1.4 10131703
15:00+11юз676023 2.7 10121567
18:00+11юз676090 1.6 10121468
21:00+9св667895 3.8 1013194
29 января, пт
пт2900:00+10всв4461100 0.7 1014570
03:00+9всв5572100 1.7 1013301
06:00+10в5469100 0.1 1013400
09:00+11вюв2260100 0.3 1014588
12:00+11юз225889 0.0 1014889
15:00+12з335951 0.0 1013791
18:00+12зсз33582 0.1 1014774
21:00+12ссз23565 0.1 1016532
30 января, сб
сб3000:00+11ссв22540 0.0 1017304
03:00+10св32550 0.0 1016174
06:00+10св44510 0.0 1015162
09:00+11св334634 0.0 1016215
12:00+13в444767 0.0 1015807
15:00+13в676683 0.3 1012574
18:00+15ююз101486100 26.3 10101060
21:00+16з61082100 38.8 1009948
31 января, вс
вс3100:00+15св2289100 5.3 1010160
03:00+16в227474 8.0 1010241
06:00+15в54786 0.4 1011224
09:00+16всв556817 0.5 1013378
12:00+17ююв557143 0.3 1014853
15:00+17ю336833 0.6 1013644
18:00+16в22674 0.2 1014514
21:00+16всв336319 0.2 1016147